OE3GWU-13 Weather Reports


time (UTC)temp
F
wind
direction
speed
knots
gust
knots
rain 1hr
in
rain 24hr
in
rain mn
in
humidity
%
barometer
mb
20260502232006 48 352 0.0 0.0 0.00 0.00 0.00 60 1022.4
20260502231004 49 339 0.0 0.9 0.00 0.00 0.00 58 1022.5
20260502230004 50 348 0.9 0.9 0.00 0.00 0.00 57 1022.5
20260502223004 52 333 0.0 2.6 0.00 0.00 0.00 53 1022.7
20260502221004 52 304 1.7 1.7 0.00 0.00 0.00 52 1022.7
20260502213004 52 344 0.0 0.9 0.00 0.00 0.00 54 1023.0
20260502212004 53 345 0.9 2.6 0.00 0.00 0.00 52 1022.7
20260502211004 53 308 1.7 1.7 0.00 0.00 0.00 50 1022.7
20260502210008 53 331 0.9 4.3 0.00 0.00 0.00 51 1023.0
20260502203008 53 318 0.9 1.7 0.00 0.00 0.00 51 1023.0
20260502202004 53 272 0.9 1.7 0.00 0.00 0.00 50 1023.4
20260502201004 52 338 0.9 0.9 0.00 0.00 0.00 49 1023.4
20260502193004 54 349 0.9 0.9 0.00 0.00 0.00 47 1023.4
20260502191004 52 345 0.0 1.7 0.00 0.00 0.00 53 1023.4
20260502190004 52 351 0.0 0.9 0.00 0.00 0.00 53 1023.4
20260502185004 52 2 0.0 0.9 0.00 0.00 0.00 55 1023.3
20260502183004 55 354 0.0 0.0 0.00 0.00 0.00 49 1023.4
20260502181004 57 350 0.0 0.9 0.00 0.00 0.00 46 1023.0
20260502164004 64 351 1.7 5.2 0.00 0.00 0.00 35 1023.4
20260502163004 65 10 1.7 2.6 0.00 0.00 0.00 34 1023.7
20260502162004 65 228 1.7 5.2 0.00 0.00 0.00 35 1023.7
20260502152004 67 179 5.2 6.1 0.00 0.00 0.00 32 1024.0
20260502151004 67 19 2.6 4.3 0.00 0.00 0.00 33 1024.0
20260502123004 69 170 2.6 5.2 0.00 0.00 0.00 42 1025.4
20260502121005 69 219 4.3 6.1 0.00 0.00 0.00 34 1025.7
20260502114004 67 193 2.6 6.1 0.00 0.00 0.00 33 1025.7
20260502113004 67 218 1.7 6.1 0.00 0.00 0.00 34 1026.1
20260502111004 66 5 0.0 2.6 0.00 0.00 0.00 39 1026.1
20260502110004 66 354 0.9 4.3 0.00 0.00 0.00 33 1026.4
20260502105004 67 349 0.0 4.3 0.00 0.00 0.00 31 1026.4
20260502103004 64 71 0.9 5.2 0.00 0.00 0.00 31 1026.8
20260502091004 61 274 1.7 5.2 0.00 0.00 0.00 37 1027.4
20260502071004 59 349 0.9 2.6 0.00 0.00 0.00 49 1027.8
20260502070004 58 353 0.9 4.3 0.00 0.00 0.00 49 1027.8
20260502065005 56 331 0.9 2.6 0.00 0.00 0.00 53 1027.8
20260502064004 56 231 2.6 2.6 0.00 0.00 0.00 55 1027.8
20260502061004 55 213 1.7 1.7 0.00 0.00 0.00 58 1027.8
20260502054004 50 1 0.9 0.9 0.00 0.00 0.00 74 1027.8
20260502050004 41 14 0.9 1.7 0.00 0.00 0.00 84 1027.8
20260502044004 39 4 0.9 0.9 0.00 0.00 0.00 88 1027.8
20260502043004 37 349 0.0 0.9 0.00 0.00 0.00 90 1027.8
20260502042004 37 3 0.9 0.9 0.00 0.00 0.00 89 1027.8
20260502041004 38 4 0.9 0.9 0.00 0.00 0.00 87 1027.8
20260502035004 39 6 0.9 0.9 0.00 0.00 0.00 86 1027.7
20260502032004 38 6 0.9 0.9 0.00 0.00 0.00 87 1027.8
20260502030008 38 359 0.9 0.9 0.00 0.00 0.00 88 1027.8
20260502025004 38 352 0.0 0.9 0.00 0.00 0.00 88 1027.8
20260502023004 39 2 0.0 0.9 0.00 0.00 0.00 86 1027.8
20260502022004 38 354 0.0 0.9 0.00 0.00 0.00 87 1027.8
20260502021004 39 9 0.9 0.9 0.00 0.00 0.00 86 1027.8
20260502020004 39 5 0.9 0.9 0.00 0.00 0.00 85 1028.1
20260502015004 39 3 0.9 0.9 0.00 0.00 0.00 84 1027.8
20260502012004 40 354 0.0 0.9 0.00 0.00 0.00 84 1028.1
20260502011004 40 0 0.9 0.9 0.00 0.00 0.00 83 1028.1
20260502010004 39 7 0.9 0.9 0.00 0.00 0.00 85 1028.4
20260502005004 39 358 0.9 0.9 0.00 0.00 0.00 84 1028.4
20260502004005 39 4 0.9 0.9 0.00 0.00 0.00 84 1028.4
20260502002005 39 12 0.9 1.7 0.00 0.00 0.00 84 1028.8
20260502001006 39 13 0.9 0.9 0.00 0.00 0.00 85 1028.8
20260502000004 40 4 0.9 0.9 0.00 0.00 0.00 83 1028.8
20260501235004 40 5 0.9 0.9 0.00 0.00 0.00 81 1028.4
20260501234004 40 5 0.9 0.9 0.00 0.00 0.00 81 1028.8
20260501233004 41 3 0.9 0.9 0.00 0.00 0.00 80 1028.8